This is the latest recevied weather packets stored in our database for station/object KF7SOJ. If no packets are shown the sender has not sent any weather packets the latest 10 day(s).
| Time | Temp. | Humidity | Pressure | Rain* | Wind** | Luminosity | Snow |
|---|---|---|---|---|---|---|---|
| 1788360798 | 18.33° C | 53% | 926.7 hPa | 0 mm | - | 138 W/m² | - |
| 1788360493 | 17.78° C | 55% | 926.8 hPa | 0 mm | - | 152 W/m² | - |
| 1788360189 | 17.78° C | 56% | 926.8 hPa | 0 mm | - | 140 W/m² | - |
| 1788359884 | 17.22° C | 57% | 927.1 hPa | 0 mm | - | 131 W/m² | - |
| 1788359578 | 17.22° C | 57% | 927.2 hPa | 0 mm | - | 123 W/m² | - |
| 1788359274 | 16.67° C | 58% | 927.2 hPa | 0 mm | - | 128 W/m² | - |
| 1788358970 | 16.67° C | 59% | 927.3 hPa | 0 mm | - | 113 W/m² | - |
| 1788358670 | 16.11° C | 59% | 927.3 hPa | 0 mm | - | 88 W/m² | - |
| 1788358367 | 16.67° C | 60% | 927.3 hPa | 0 mm | - | 75 W/m² | - |
| 1788358066 | 16.67° C | 58% | 927.3 hPa | 0 mm | - | 76 W/m² | - |
| 1788357761 | 17.22° C | 56% | 927.4 hPa | 0 mm | - | 70 W/m² | - |
| 1788357460 | 17.22° C | 55% | 927.3 hPa | 0 mm | - | 124 W/m² | - |
| 1788357156 | 17.22° C | 56% | 927.2 hPa | 0 mm | - | 101 W/m² | - |
| 1788356856 | 16.67° C | 58% | 927 hPa | 0 mm | - | 88 W/m² | - |
| 1788356551 | 15.56° C | 61% | 927.1 hPa | 0 mm | - | 63 W/m² | - |
| 1788356247 | 15.56° C | 62% | 927.2 hPa | 0 mm | - | 46 W/m² | - |
| 1788355946 | 15.56° C | 61% | 927.3 hPa | 0 mm | - | 46 W/m² | - |
| 1788355641 | 15.56° C | 61% | 927.2 hPa | 0 mm | - | 30 W/m² | - |
| 1788355336 | 15° C | 61% | 927 hPa | 0 mm | - | 27 W/m² | - |
| 1788355032 | 15.56° C | 61% | 927.1 hPa | 0 mm | - | 22 W/m² | - |
| 1788354728 | 15.56° C | 60% | 927.2 hPa | 0 mm | - | 25 W/m² | - |
| 1788354423 | 15° C | 62% | 927 hPa | 0 mm | - | 21 W/m² | - |
| 1788354119 | 15° C | 62% | 927 hPa | 0 mm | - | 20 W/m² | - |
| 1788353813 | 15° C | 61% | 927.2 hPa | 0 mm | - | 16 W/m² | - |
| 1788353510 | 15° C | 62% | 927.1 hPa | 0 mm | - | 13 W/m² | - |
* Rain latest hour (hover to see other rain measurements)
** Current wind speed in m/s (hover to see current wind gust speed)